Location: Newark
(44.6394°N, 22.2943°E)
Time: 06:18:08
(UTC+00:00)

N. Korean satellite - Visible Passes

Search period start: 27 January 2022 00:00
Search period end: 06 February 2022 00:00
Orbit: 447 x 490 km, 97.3° (Epoch: 26 January)

Date Brightness Start Highest point End Pass type
(mag) Time Alt. Az. Time Alt. Az. Time Alt. Az.
27 Jan 6.7 03:44:25 10° NNE 03:48:05 76° ESE 03:48:42 58° SSE visible
28 Jan 8.4 03:15:29 10° NNE 03:18:47 31° E 03:19:37 28° SE visible
28 Jan 8.0 04:49:07 10° NNW 04:51:42 19° WNW 04:53:41 13° WSW visible
29 Jan 9.6 02:47:14 10° NE 02:49:21 15° E 02:50:35 13° ESE visible
29 Jan 7.0 04:19:15 10° N 04:22:39 38° WNW 04:24:39 21° SW visible
30 Jan 6.5 03:49:49 10° NNE 03:53:28 89° E 03:55:38 23° SSW visible
31 Jan 8.1 03:20:46 10° NNE 03:24:09 36° E 03:26:42 15° SSE visible
31 Jan 8.2 04:54:41 10° NNW 04:57:00 16° WNW 04:59:18 10° WSW visible
01 Feb 9.5 02:52:16 10° NE 02:54:42 17° E 02:57:05 10° SE visible
01 Feb 7.2 04:24:37 10° N 04:27:56 33° WNW 04:31:12 10° SW visible
02 Feb 6.4 03:55:05 10° N 03:58:43 79° WNW 04:02:18 10° SSW visible
03 Feb 7.7 03:25:54 10° NNE 03:29:22 42° E 03:32:48 10° S visible
03 Feb 8.3 05:00:09 10° NNW 05:02:09 14° WNW 05:04:08 10° W visible
04 Feb 9.3 02:57:14 10° NE 02:59:53 19° E 03:02:31 10° SE visible
04 Feb 7.4 04:29:53 10° N 04:33:03 29° WNW 04:36:11 10° SW visible
05 Feb 6.4 04:00:13 10° N 04:03:49 67° WNW 04:07:22 10° SSW visible
